Powrót do katalogu

DMSP 5D-2 F11 DEB

AktywnyPO
NORAD 28326·DEBRIS·🇺🇸 United States

Wystrzelony Nov 28, 1991 z Vandenberg Space Force Base

Loading…

Następne Przeloty (najbliższe 24 godziny)

TLE

ŚwieżeSource: Space-Track

Epoka: Sep 14, 2026, 06:04 UTC

1 28326U 91082AP  26257.25343834  .00004961  00000-0  13260-2 0  9999
2 28326  98.8176   7.6330 0044798  99.4502 261.1758 14.48198269155915

Śledź DMSP 5D-2 F11 DEB w czasie rzeczywistym z AllMySat

Download on the App Store